EW5390 Weather Reports


Display with metric or nautical units.
time (UTC)temp
F
wind
direction
speed
MPH
gust
MPH
rain 1hr
in
rain 24hr
in
rain mn
in
humidity
%
barometer
mb
20210624070116 56 0 0.0 0.0 0.00 0.07 0.00 89 1026.0
20210624065604 56 0 0.0 0.0 0.00 0.07 0.00 89 1026.0
20210624065051 56 0 0.0 0.0 0.00 0.07 0.00 88 1026.0
20210624064620 56 0 0.0 0.0 0.00 0.07 0.00 88 1026.0
20210624064051 56 0 0.0 0.0 0.00 0.07 0.00 88 1026.1
20210624063601 56 0 0.0 0.0 0.00 0.07 0.00 88 1026.0
20210624063209 57 0 0.0 0.0 0.00 0.07 0.00 87 1026.1
20210624062552 57 0 0.0 0.0 0.00 0.07 0.00 87 1026.1
20210624062052 57 0 0.0 0.0 0.00 0.07 0.00 87 1026.2
20210624061631 57 0 0.0 0.0 0.00 0.07 0.00 86 1026.1
20210624061108 57 0 0.0 1.0 0.00 0.07 0.00 86 1026.2
20210624060552 57 0 0.0 1.0 0.00 0.07 0.00 86 1026.1
20210624060107 57 0 0.0 0.0 0.00 0.07 0.00 86 1026.1
20210624055602 57 0 0.0 0.0 0.00 0.07 0.00 85 1026.0
20210624055053 57 0 0.0 0.0 0.00 0.07 0.00 85 1026.1
20210624054620 58 0 0.0 0.0 0.00 0.07 0.00 85 1025.9
20210624054052 58 0 0.0 0.0 0.00 0.07 0.00 85 1025.9
20210624053552 58 0 0.0 0.0 0.00 0.07 0.00 85 1026.0
20210624053329 58 0 0.0 0.0 0.00 0.07 0.00 85 1025.9
20210624052559 58 0 0.0 0.0 0.00 0.07 0.00 84 1026.0
20210624052054 58 0 0.0 0.0 0.00 0.07 0.00 84 1025.9
20210624051615 58 0 0.0 0.0 0.00 0.07 0.00 86 1025.9
20210624051102 58 0 0.0 0.0 0.00 0.07 0.00 85 1025.9
20210624050555 58 0 0.0 0.0 0.00 0.07 0.00 84 1025.9
20210624050125 58 0 0.0 0.0 0.00 0.07 0.00 84 1025.9
20210624045554 58 0 0.0 0.0 0.00 0.07 0.00 84 1025.9
20210624045140 59 0 0.0 0.0 0.00 0.07 0.00 83 1025.9
20210624044619 59 0 0.0 0.0 0.00 0.07 0.00 84 1025.9
20210624044050 59 0 0.0 0.0 0.00 0.07 0.00 84 1026.0
20210624043554 59 0 0.0 0.0 0.00 0.07 0.00 84 1026.0
20210624043136 59 0 0.0 0.0 0.00 0.07 0.00 84 1025.9
20210624042552 59 0 0.0 0.0 0.00 0.07 0.00 83 1025.9
20210624042055 59 0 0.0 0.0 0.00 0.07 0.00 83 1026.0
20210624041635 59 0 0.0 0.0 0.00 0.07 0.00 83 1026.0
20210624041056 59 0 0.0 0.0 0.00 0.07 0.00 83 1026.0
20210624040607 59 0 0.0 0.0 0.00 0.07 0.00 83 1026.0
20210624040129 59 0 0.0 0.0 0.00 0.07 0.00 82 1025.9
20210624035552 59 0 0.0 0.0 0.00 0.07 0.07 82 1026.0
20210624035058 60 0 0.0 0.0 0.00 0.07 0.07 82 1025.9
20210624034620 60 0 0.0 0.0 0.00 0.07 0.07 81 1026.0
20210624034052 60 0 0.0 0.0 0.00 0.07 0.07 81 1026.0
20210624033553 60 0 0.0 0.0 0.00 0.07 0.07 81 1026.0
20210624033144 60 0 0.0 0.0 0.00 0.07 0.07 80 1026.0
20210624032554 60 0 0.0 0.0 0.00 0.07 0.07 80 1026.0
20210624032053 60 0 0.0 0.0 0.00 0.07 0.07 80 1026.0
20210624031608 60 0 0.0 0.0 0.00 0.07 0.07 79 1025.9
20210624031053 61 0 0.0 0.0 0.00 0.07 0.07 79 1025.9
20210624030555 61 0 0.0 0.0 0.00 0.07 0.07 78 1025.8
20210624030159 61 0 0.0 0.0 0.00 0.07 0.07 78 1025.9
20210624025559 61 0 0.0 0.0 0.00 0.07 0.07 78 1025.9
20210624025104 61 0 0.0 0.0 0.00 0.07 0.07 78 1026.0
20210624024839 61 0 0.0 0.0 0.00 0.07 0.07 77 1026.0
20210624024110 61 0 0.0 0.0 0.00 0.07 0.07 77 1025.9
20210624023557 62 0 0.0 0.0 0.00 0.07 0.07 77 1025.9
20210624023121 62 0 0.0 0.0 0.00 0.07 0.07 77 1026.0
20210624022632 62 0 0.0 0.0 0.00 0.07 0.07 76 1026.0
20210624022052 62 0 0.0 0.0 0.00 0.07 0.07 78 1026.0
20210624021724 62 0 0.0 0.0 0.00 0.07 0.07 77 1025.9
20210624021104 63 0 0.0 0.0 0.00 0.07 0.07 76 1026.0
20210624020609 63 0 0.0 0.0 0.00 0.07 0.07 76 1025.9
20210624020157 63 0 0.0 0.0 0.00 0.07 0.07 76 1025.8
20210624015600 63 0 0.0 0.0 0.00 0.07 0.07 76 1025.7
20210624015052 63 0 0.0 0.0 0.00 0.07 0.07 76 1025.5
20210624014648 63 0 0.0 0.0 0.00 0.07 0.07 75 1025.5
20210624014054 64 0 0.0 0.0 0.00 0.07 0.07 75 1025.3
20210624013553 64 0 0.0 0.0 0.00 0.07 0.07 74 1025.2
20210624013119 64 0 0.0 0.0 0.00 0.07 0.07 74 1025.2
20210624012554 64 0 0.0 0.0 0.00 0.07 0.07 73 1025.1
20210624012055 65 0 0.0 0.0 0.00 0.07 0.07 73 1025.1
20210624011614 65 0 0.0 0.0 0.00 0.07 0.07 71 1024.9
20210624011051 65 0 0.0 2.0 0.00 0.07 0.07 71 1024.9
20210624010550 65 0 0.0 2.0 0.00 0.07 0.07 71 1024.9
20210624010121 65 0 0.0 0.0 0.00 0.07 0.07 66 1024.7
20210624005602 66 0 0.0 0.0 0.00 0.07 0.07 66 1024.6
20210624005127 66 0 0.0 0.0 0.00 0.07 0.07 67 1024.6
20210624004646 66 0 0.0 0.0 0.00 0.07 0.07 67 1024.5
20210624004055 66 0 0.0 0.0 0.00 0.07 0.07 65 1024.4
20210624003618 67 0 0.0 0.0 0.00 0.07 0.07 65 1024.4
20210624003137 67 0 0.0 0.0 0.00 0.07 0.07 65 1024.5
20210624002600 68 0 0.0 0.0 0.00 0.07 0.07 65 1024.4
20210624002119 68 0 0.0 0.0 0.00 0.07 0.07 62 1024.4
20210624001622 69 0 0.0 0.0 0.00 0.07 0.07 61 1024.3
20210624001053 69 0 0.0 0.0 0.00 0.07 0.07 61 1024.3
20210624000559 69 0 0.0 0.0 0.00 0.07 0.07 61 1024.2
20210624000116 70 0 0.0 0.0 0.00 0.07 0.07 59 1024.2
20210623235558 70 0 0.0 0.0 0.00 0.07 0.07 59 1024.2
20210623235057 71 0 0.0 0.0 0.00 0.07 0.07 58 1024.1
20210623234650 71 0 0.0 0.0 0.00 0.07 0.07 59 1024.1
20210623234055 71 0 0.0 0.0 0.00 0.07 0.07 59 1024.1
20210623233555 71 0 0.0 0.0 0.00 0.07 0.07 59 1024.1
20210623233150 71 0 0.0 0.0 0.00 0.07 0.07 60 1024.0
20210623232554 71 0 0.0 0.0 0.00 0.07 0.07 60 1024.1
20210623232054 71 0 0.0 0.0 0.00 0.07 0.07 59 1024.0
20210623231638 71 0 0.0 1.0 0.00 0.07 0.07 55 1023.9
20210623231106 72 0 0.0 1.0 0.00 0.07 0.07 55 1023.8
20210623230553 72 64 0.0 2.0 0.00 0.07 0.07 53 1023.7
20210623230213 72 64 0.0 2.0 0.00 0.07 0.07 50 1023.7
20210623225553 72 65 1.0 2.0 0.00 0.07 0.07 50 1023.7
20210623225054 72 0 0.0 1.0 0.00 0.07 0.07 54 1023.6
20210623224633 72 135 0.0 2.0 0.00 0.07 0.07 56 1023.7
20210623224055 72 0 0.0 2.0 0.00 0.07 0.07 49 1023.5
20210623223555 72 56 1.0 2.0 0.00 0.07 0.07 50 1023.5
20210623223130 72 46 1.0 2.0 0.00 0.07 0.07 51 1023.6
20210623222554 73 0 0.0 1.0 0.00 0.07 0.07 51 1023.6
20210623222101 73 0 0.0 3.0 0.00 0.07 0.07 48 1023.5
20210623221745 73 0 0.0 3.0 0.00 0.07 0.07 46 1023.4
20210623221053 72 324 1.0 4.0 0.00 0.07 0.07 47 1023.3
20210623220640 73 326 1.0 4.0 0.00 0.07 0.07 49 1023.2
20210623220217 72 58 0.0 3.0 0.00 0.07 0.07 51 1023.1
20210623215606 72 58 2.0 3.0 0.00 0.08 0.07 52 1023.2
20210623215107 72 62 1.0 3.0 0.00 0.08 0.07 52 1023.2
20210623214611 72 54 1.0 1.0 0.00 0.08 0.07 48 1023.1
20210623214100 73 0 0.0 1.0 0.00 0.08 0.07 49 1023.2
20210623213639 72 0 0.0 3.0 0.00 0.08 0.07 51 1023.2
20210623213253 72 0 1.0 4.0 0.00 0.08 0.07 54 1023.2
20210623212554 72 56 2.0 5.0 0.00 0.08 0.07 48 1023.2
20210623212103 72 61 2.0 5.0 0.00 0.08 0.07 48 1023.2
20210623211647 72 57 1.0 2.0 0.00 0.08 0.07 47 1023.2
20210623211053 72 0 0.0 2.0 0.00 0.08 0.07 48 1023.4
20210623210605 72 329 1.0 2.0 0.00 0.08 0.07 46 1023.4
20210623210145 72 328 1.0 2.0 0.00 0.08 0.07 52 1023.3
20210623205558 72 0 1.0 3.0 0.00 0.09 0.07 52 1023.3
20210623205054 72 60 2.0 3.0 0.00 0.09 0.07 52 1023.4
20210623204624 72 60 1.0 3.0 0.00 0.09 0.07 48 1023.4
20210623204102 72 52 2.0 5.0 0.00 0.09 0.07 48 1023.4
20210623203613 72 53 1.0 5.0 0.00 0.09 0.07 48 1023.4
20210623203148 72 46 1.0 4.0 0.00 0.09 0.07 49 1023.4
20210623202552 72 308 1.0 3.0 0.00 0.09 0.07 51 1023.4
20210623202056 72 347 1.0 3.0 0.00 0.09 0.07 48 1023.4
20210623201615 72 163 0.0 3.0 0.00 0.09 0.07 47 1023.4
20210623201059 72 0 0.0 2.0 0.00 0.09 0.07 49 1023.4
20210623200551 72 340 1.0 5.0 0.00 0.09 0.07 47 1023.4
20210623200115 72 321 1.0 5.0 0.00 0.09 0.07 49 1023.4
20210623195551 72 340 1.0 3.0 0.00 0.13 0.07 51 1023.6
20210623195053 72 324 0.0 2.0 0.00 0.13 0.07 50 1023.4
20210623194655 72 0 1.0 2.0 0.00 0.13 0.07 46 1023.5
20210623194131 72 115 1.0 2.0 0.00 0.13 0.07 51 1023.5
20210623193617 72 8 0.0 2.0 0.00 0.13 0.07 48 1023.5
20210623193236 72 0 0.0 2.0 0.00 0.13 0.07 51 1023.5
20210623192554 71 59 1.0 2.0 0.00 0.13 0.07 46 1023.6
20210623192100 71 0 1.0 5.0 0.00 0.13 0.07 49 1023.5
20210623191623 71 321 2.0 5.0 0.00 0.13 0.07 46 1023.6
20210623191052 71 323 2.0 8.0 0.00 0.13 0.07 47 1023.6
20210623190556 72 50 4.0 8.0 0.00 0.13 0.07 48 1023.6
20210623190138 72 39 1.0 6.0 0.00 0.13 0.07 46 1023.5
20210623185553 72 45 2.0 5.0 0.00 0.40 0.07 46 1023.6
20210623185051 72 98 3.0 8.0 0.00 0.40 0.07 49 1023.5
20210623184606 71 56 5.0 8.0 0.00 0.40 0.07 47 1023.5
20210623184116 71 58 2.0 8.0 0.00 0.40 0.07 47 1023.5
20210623183554 71 59 4.0 8.0 0.00 0.40 0.07 45 1023.5
20210623183141 71 60 3.0 5.0 0.00 0.40 0.07 49 1023.4
20210623182554 71 311 2.0 5.0 0.00 0.40 0.07 48 1023.5
20210623182052 72 63 2.0 5.0 0.00 0.40 0.07 47 1023.5
20210623181640 71 32 1.0 4.0 0.00 0.40 0.07 48 1023.5
20210623181057 71 326 0.0 4.0 0.00 0.40 0.07 47 1023.4
20210623180623 71 324 2.0 6.0 0.00 0.40 0.07 44 1023.4
20210623180219 71 10 2.0 6.0 0.00 0.40 0.07 47 1023.5
20210623175552 71 59 1.0 5.0 0.00 0.49 0.07 48 1023.4
20210623175051 71 220 2.0 4.0 0.00 0.49 0.07 46 1023.4
20210623174645 71 357 2.0 8.0 0.00 0.49 0.07 46 1023.5
20210623174051 71 153 3.0 8.0 0.00 0.49 0.07 49 1023.3
20210623173605 70 60 2.0 6.0 0.00 0.49 0.07 48 1023.4
20210623173122 71 7 3.0 6.0 0.00 0.49 0.07 47 1023.4
20210623172552 70 0 1.0 3.0 0.00 0.49 0.07 47 1023.3
20210623172052 70 0 2.0 3.0 0.00 0.49 0.07 50 1023.3
20210623171631 71 238 2.0 4.0 0.00 0.49 0.07 45 1023.3
20210623171052 71 143 0.0 4.0 0.00 0.49 0.07 49 1023.3
20210623170552 71 59 1.0 5.0 0.00 0.49 0.07 47 1023.4
20210623170104 70 49 2.0 6.0 0.00 0.49 0.07 49 1023.4
20210623165552 70 65 4.0 6.0 0.00 0.49 0.07 45 1023.2
20210623165051 70 160 1.0 5.0 0.00 0.49 0.07 47 1023.3
20210623164621 70 342 2.0 5.0 0.00 0.49 0.07 47 1023.4
20210623164051 70 320 3.0 7.0 0.00 0.49 0.07 45 1023.4
20210623163553 70 307 3.0 7.0 0.00 0.49 0.07 48 1023.3
20210623163120 70 59 3.0 6.0 0.00 0.49 0.07 47 1023.2
20210623162554 70 311 1.0 3.0 0.00 0.49 0.07 47 1023.2
20210623162051 71 328 0.0 6.0 0.00 0.49 0.07 47 1023.2
20210623161742 70 335 2.0 6.0 0.00 0.49 0.07 48 1023.2
20210623161114 70 317 3.0 5.0 0.00 0.49 0.07 51 1023.2
20210623160557 70 0 1.0 5.0 0.00 0.49 0.07 51 1023.2
20210623160150 70 323 2.0 6.0 0.00 0.49 0.07 48 1023.1
20210623155559 70 25 2.0 6.0 0.00 0.49 0.07 49 1023.2
20210623155051 70 68 2.0 4.0 0.00 0.49 0.07 51 1023.1
20210623154558 70 356 2.0 4.0 0.00 0.49 0.07 47 1023.1
20210623154053 70 67 1.0 7.0 0.00 0.49 0.07 51 1023.1
20210623153552 69 222 3.0 7.0 0.00 0.49 0.07 54 1023.0
20210623153138 69 56 3.0 6.0 0.00 0.49 0.07 52 1023.0
20210623152606 69 51 2.0 6.0 0.00 0.49 0.07 53 1023.0
20210623152105 69 66 3.0 6.0 0.00 0.49 0.07 55 1023.0
20210623151655 69 51 3.0 5.0 0.00 0.49 0.07 51 1023.0
20210623151057 69 306 2.0 5.0 0.00 0.49 0.07 50 1023.0
20210623150552 68 342 3.0 5.0 0.00 0.49 0.07 48 1023.1
20210623150145 69 328 3.0 4.0 0.00 0.49 0.07 48 1023.1
20210623145552 69 50 2.0 4.0 0.00 0.49 0.07 55 1023.0
20210623145051 68 57 0.0 5.0 0.00 0.49 0.07 57 1022.9
20210623144603 68 358 1.0 5.0 0.00 0.49 0.07 58 1022.9
20210623144051 68 315 2.0 7.0 0.00 0.49 0.07 58 1022.9
20210623143553 67 49 3.0 7.0 0.00 0.49 0.07 57 1022.9
20210623143225 68 56 3.0 7.0 0.00 0.49 0.07 56 1022.8
20210623142555 67 61 2.0 6.0 0.00 0.49 0.07 57 1022.8
20210623142105 67 44 2.0 5.0 0.00 0.49 0.07 58 1022.7
20210623141700 67 252 3.0 5.0 0.00 0.49 0.07 61 1022.7
20210623141053 67 355 1.0 4.0 0.00 0.49 0.07 61 1022.6
20210623140554 66 316 2.0 5.0 0.06 0.49 0.07 59 1022.6
20210623140116 66 326 3.0 5.0 0.07 0.49 0.07 64 1022.5
20210623135555 67 68 2.0 6.0 0.07 0.49 0.07 62 1022.4
20210623135052 66 60 2.0 6.0 0.07 0.49 0.07 62 1022.4
20210623134821 66 65 1.0 3.0 0.07 0.49 0.07 61 1022.4
20210623134052 66 8 2.0 5.0 0.07 0.49 0.07 63 1022.3
20210623133559 65 58 2.0 8.0 0.07 0.49 0.07 67 1022.3
20210623133150 65 66 3.0 8.0 0.07 0.49 0.07 65 1022.3
20210623132555 65 346 1.0 2.0 0.07 0.49 0.07 68 1022.3
20210623132051 65 331 1.0 3.0 0.07 0.49 0.07 67 1022.3
20210623131715 64 344 0.0 5.0 0.07 0.49 0.07 69 1022.3
20210623131056 64 330 3.0 5.0 0.07 0.49 0.07 68 1022.3
20210623130618 64 328 1.0 4.0 0.01 0.43 0.01 71 1022.3
20210623130213 63 56 0.0 4.0 0.00 0.42 0.00 73 1022.3
20210623125552 63 324 1.0 3.0 0.00 0.42 0.00 74 1022.2
20210623125055 63 35 1.0 2.0 0.00 0.42 0.00 77 1022.2
20210623124638 63 356 0.0 5.0 0.00 0.42 0.00 77 1022.1
20210623124053 62 61 1.0 5.0 0.00 0.42 0.00 77 1022.0
20210623123552 62 75 1.0 3.0 0.00 0.42 0.00 79 1022.0
20210623123234 61 329 0.0 2.0 0.00 0.42 0.00 80 1022.0
20210623122552 61 0 0.0 2.0 0.00 0.42 0.00 80 1021.9
20210623122105 60 0 1.0 2.0 0.00 0.42 0.00 81 1021.8
20210623121745 60 318 1.0 2.0 0.00 0.42 0.00 82 1021.8
20210623121052 60 332 0.0 1.0 0.00 0.42 0.00 84 1021.7
20210623120552 59 328 0.0 2.0 0.00 0.42 0.00 84 1021.6
20210623120122 59 327 0.0 2.0 0.00 0.42 0.00 86 1021.6
20210623115552 58 327 0.0 1.0 0.00 0.42 0.00 86 1021.6
20210623115103 58 336 0.0 1.0 0.00 0.42 0.00 87 1021.6
20210623114631 58 336 0.0 3.0 0.00 0.42 0.00 87 1021.6
20210623114052 57 20 0.0 3.0 0.00 0.42 0.00 90 1021.6
20210623113552 56 15 0.0 1.0 0.00 0.42 0.00 91 1021.7
20210623113118 56 0 0.0 0.0 0.00 0.42 0.00 93 1021.6
20210623112600 55 0 0.0 0.0 0.00 0.42 0.00 93 1021.5
20210623112113 55 0 0.0 0.0 0.00 0.42 0.00 94 1021.5
20210623111644 55 0 0.0 0.0 0.00 0.42 0.00 94 1021.4
20210623111051 55 0 0.0 0.0 0.00 0.42 0.00 95 1021.3
20210623110554 54 0 0.0 0.0 0.00 0.42 0.00 95 1021.2
20210623110129 54 0 0.0 0.0 0.00 0.42 0.00 95 1021.1
20210623105552 54 0 0.0 0.0 0.00 0.42 0.00 95 1021.0
20210623105101 54 0 0.0 0.0 0.00 0.42 0.00 95 1020.8
20210623104610 53 0 0.0 0.0 0.00 0.42 0.00 95 1020.6
20210623104051 53 0 0.0 0.0 0.00 0.42 0.00 95 1020.6
20210623103552 53 0 0.0 0.0 0.00 0.42 0.00 95 1020.5
20210623103138 53 0 0.0 0.0 0.00 0.42 0.00 95 1020.5
20210623102551 53 0 0.0 0.0 0.00 0.42 0.00 95 1020.4
20210623102122 53 0 0.0 0.0 0.00 0.42 0.00 95 1020.3
20210623101641 52 0 0.0 0.0 0.00 0.42 0.00 95 1020.3
20210623101109 52 0 0.0 0.0 0.00 0.42 0.00 94 1020.1
20210623100552 52 0 0.0 0.0 0.00 0.42 0.00 94 1020.1
20210623100131 52 0 0.0 0.0 0.00 0.42 0.00 94 1020.0
20210623095613 52 0 0.0 0.0 0.00 0.42 0.00 94 1019.9
20210623095054 52 0 0.0 0.0 0.00 0.42 0.00 94 1019.7
20210623094613 52 0 0.0 0.0 0.00 0.42 0.00 94 1019.7
20210623094058 52 0 0.0 0.0 0.00 0.42 0.00 94 1019.6
20210623093640 52 0 0.0 0.0 0.00 0.42 0.00 94 1019.6
20210623093237 52 0 0.0 0.0 0.00 0.42 0.00 94 1019.5
20210623092600 52 0 0.0 0.0 0.00 0.42 0.00 94 1019.5
20210623092127 52 0 0.0 0.0 0.00 0.42 0.00 94 1019.4
20210623091744 53 0 0.0 0.0 0.00 0.42 0.00 94 1019.2
20210623091106 53 0 0.0 0.0 0.00 0.42 0.00 94 1019.1
20210623090603 53 0 0.0 0.0 0.00 0.42 0.00 94 1019.1
20210623090127 53 0 0.0 0.0 0.00 0.42 0.00 94 1018.9
20210623085605 52 0 0.0 0.0 0.00 0.42 0.00 94 1018.9
20210623085052 52 0 0.0 0.0 0.00 0.42 0.00 94 1018.8
20210623084650 52 0 0.0 0.0 0.00 0.42 0.00 94 1018.8
20210623084104 53 0 0.0 0.0 0.00 0.42 0.00 94 1018.8
20210623083552 53 0 0.0 0.0 0.00 0.42 0.00 94 1018.7
20210623083411 53 0 0.0 0.0 0.00 0.42 0.00 94 1018.6
20210623082551 53 0 0.0 0.0 0.00 0.42 0.00 94 1018.4
20210623082054 53 0 0.0 0.0 0.00 0.42 0.00 94 1018.4
20210623081659 53 0 0.0 0.0 0.00 0.42 0.00 94 1018.3
20210623081057 53 0 0.0 0.0 0.00 0.42 0.00 94 1018.2
20210623080615 53 0 0.0 0.0 0.00 0.42 0.00 94 1018.1
20210623080132 53 0 0.0 0.0 0.00 0.42 0.00 94 1018.1
20210623075551 53 0 0.0 0.0 0.00 0.42 0.00 94 1018.1
20210623075053 53 0 0.0 0.0 0.00 0.42 0.00 93 1018.1
20210623074739 53 0 0.0 0.0 0.00 0.42 0.00 93 1018.1
20210623074110 53 0 0.0 0.0 0.00 0.42 0.00 93 1018.0
20210623073554 53 0 0.0 0.0 0.00 0.42 0.00 93 1017.8
20210623073344 54 0 0.0 0.0 0.00 0.42 0.00 93 1017.8
20210623072551 54 0 0.0 0.0 0.00 0.42 0.00 93 1017.8
20210623072114 54 0 0.0 0.0 0.00 0.42 0.00 93 1017.8
20210623071629 54 0 0.0 0.0 0.00 0.42 0.00 93 1017.6
20210623071055 54 0 0.0 0.0 0.00 0.42 0.00 93 1017.6
20210623070558 54 0 0.0 0.0 0.00 0.42 0.00 93 1017.6